Location: Auckland
(36.8670°S, 174.7670°E)
Time: 13:42:59
(UTC+12:00)

Courier 1B Rocket - Pass Details

Date: 26 July 2019
Orbit: 920 x 1202 km, 28.3° (Epoch: 24 August)

Event Time Altitude Azimuth Distance (km) Brightness Sun altitude
Rises 00:56:24 0° 331° (NNW) 4,032 - -71.7°
Reaches altitude 10° 01:00:19 10° 349° (N) 3,105 - -71.3°
Maximum altitude 01:05:03 17° 27° (NNE) 2,612 - -70.9°
Drops below altitude 10° 01:09:49 10° 65° (ENE) 3,138 - -70.4°
Sets 01:13:48 0° 83° (E) 4,094 - -70.0°
